Weather History for Manassas, VA

Change the Weather History Date:

Monday, April 1, 2013

  Actual Average Record
Temperature  
Mean Temperature 50 °F -  
Max Temperature 64 °F 59 °F 75 °F (1998)
Min Temperature 35 °F 36 °F 26 °F (2003)
Degree Days  
Heating Degree Days 16    
Moisture  
Dew Point 35 °F    
Average Humidity 79    
Maximum Humidity 100    
Minimum Humidity 37    
Precipitation  
Precipitation 0.00 in - - ()
Sea Level Pressure  
Sea Level Pressure 29.85 in    
Wind  
Wind Speed 3 mph (NNW)    
Max Wind Speed 24 mph    
Max Gust Speed 31 mph    
Visibility 5 miles    
Events      
Averages and records for this station are not official NWS values.
T = Trace of Precipitation, MM = Missing Value Source: NWS Daily Summary

Daily Weather History Graph

Daily Weather History Graph

Search for Another Location

Airport:

Trip Planner

Search our weather history database for the weather conditions in past years. The results will help you decide how hot, cold, wet, or windy it might be!

Date:

Astronomy

Apr. 01, 2013 Rise Set
Actual Time 6:54 AM EDT 7:33 PM EDT
Civil Twilight 6:27 AM EDT 8:00 PM EDT
Nautical Twilight 5:56 AM EDT 8:32 PM EDT
Astronomical Twilight 5:23 AM EDT 9:04 PM EDT
Moon 12:37 AM EDT 10:41 AM EDT
Length of Visible Light 13h 32m
Length of Day
12h 39m
Waning Gibbous, 67% of the Moon is Illuminated
Apr 1
Waning Gibbous
Apr 3
Last Quarter
Apr 10
New
Apr 18
First Quarter
Apr 25
Full

Hourly Weather History & Observations

Time (EDT) Temp. Windchill Dew Point Humidity Pressure Visibility Wind Dir Wind Speed Gust Speed Precip Events Conditions
12:15 AM 41.0 °F - 39.2 °F 93% 29.79 in 0.2 mi Calm Calm - N/A   Overcast
12:35 AM 41.0 °F - 41.0 °F 100% 29.79 in 0.2 mi Calm Calm - N/A   Overcast
1:15 AM 41.0 °F - 41.0 °F 100% 29.79 in 0.2 mi Calm Calm - N/A   Overcast
1:35 AM 42.8 °F - 41.0 °F 93% 29.79 in 0.2 mi Calm Calm - N/A   Overcast
1:55 AM 39.2 °F - 39.2 °F 100% 29.79 in 0.2 mi Calm Calm - N/A   Overcast
2:15 AM 39.2 °F - 39.2 °F 100% 29.79 in 0.2 mi Calm Calm - N/A   Overcast
2:35 AM 39.2 °F - 39.2 °F 100% 29.79 in 0.2 mi Calm Calm - N/A   Overcast
2:55 AM 41.0 °F - 39.2 °F 93% 29.79 in 0.2 mi Calm Calm - N/A   Overcast
3:15 AM 39.2 °F 35.0 °F 39.2 °F 100% 29.79 in 0.2 mi SSE 5.8 mph - N/A   Overcast
3:35 AM 41.0 °F 39.0 °F 39.2 °F 93% 29.79 in 0.2 mi South 3.5 mph - N/A   Overcast
3:55 AM 41.0 °F - 39.2 °F 93% 29.79 in 0.2 mi Calm Calm - N/A   Overcast
4:15 AM 39.2 °F - 39.2 °F 100% 29.79 in 0.2 mi Calm Calm - N/A   Overcast
4:35 AM 39.2 °F - 39.2 °F 100% 29.79 in 0.2 mi Calm Calm - N/A   Overcast
4:55 AM 39.2 °F - 39.2 °F 100% 29.79 in 0.2 mi Calm Calm - N/A   Overcast
5:15 AM 39.2 °F - 39.2 °F 100% 29.79 in 0.2 mi Calm Calm - N/A   Overcast
5:35 AM 39.2 °F 37.0 °F 39.2 °F 100% 29.78 in 0.2 mi SSE 3.5 mph - N/A   Overcast
5:55 AM 39.2 °F 37.0 °F 39.2 °F 100% 29.78 in 0.2 mi South 3.5 mph - N/A   Overcast
6:15 AM 37.4 °F - 37.4 °F 100% 29.77 in 0.2 mi Calm Calm - N/A   Overcast
6:35 AM 37.4 °F - 37.4 °F 100% 29.78 in 0.2 mi Calm Calm - N/A   Overcast
6:55 AM 35.6 °F - 35.6 °F 100% 29.78 in 0.2 mi Calm Calm - N/A   Overcast
7:15 AM 37.4 °F - 37.4 °F 100% 29.79 in 0.5 mi Calm Calm - N/A   Mostly Cloudy
8:55 AM 46.4 °F - 46.4 °F 100% 29.79 in 10.0 mi Calm Calm - N/A   Clear
11:55 AM 64.4 °F - 37.4 °F 37% 29.76 in 10.0 mi West 15.0 mph 25.3 mph N/A   Partly Cloudy
3:45 PM 55.4 °F - 37.4 °F 51% 29.77 in 10.0 mi NNW 18.4 mph 27.6 mph N/A   Mostly Cloudy
4:55 PM 55.4 °F - 35.6 °F 47% 29.81 in 10.0 mi NW 24.2 mph 31.1 mph N/A   Partly Cloudy
6:55 PM 48.2 °F - 30.2 °F 50% 29.88 in 10.0 mi NNW 18.4 mph 26.5 mph N/A   Clear
7:15 PM 46.4 °F 40.7 °F 30.2 °F 53% 29.90 in 10.0 mi NNW 12.7 mph 20.7 mph N/A   Clear
7:35 PM 46.4 °F 40.7 °F 30.2 °F 53% 29.91 in 10.0 mi NW 12.7 mph 21.9 mph N/A   Clear
7:55 PM 46.4 °F 41.1 °F 28.4 °F 50% 29.91 in 10.0 mi NNW 11.5 mph - N/A   Clear
8:15 PM 44.6 °F 41.4 °F 28.4 °F 53% 29.93 in 10.0 mi NNW 5.8 mph - N/A   Clear
8:35 PM 44.6 °F 39.7 °F 28.4 °F 53% 29.94 in 10.0 mi North 9.2 mph - N/A   Clear
8:55 PM 44.6 °F 42.2 °F 28.4 °F 53% 29.95 in 10.0 mi NNW 4.6 mph - N/A   Partly Cloudy
9:15 PM 42.8 °F 40.1 °F 28.4 °F 57% 29.95 in 10.0 mi NNW 4.6 mph - N/A   Clear
9:35 PM 44.6 °F 43.1 °F 26.6 °F 49% 29.96 in 10.0 mi NNE 3.5 mph - N/A   Clear
9:55 PM 44.6 °F - 24.8 °F 46% 29.97 in 10.0 mi Calm Calm - N/A   Scattered Clouds
10:15 PM 42.8 °F - 28.4 °F 57% 29.97 in 10.0 mi Calm Calm - N/A   Overcast
10:35 PM 39.2 °F - 32.0 °F 75% 29.97 in 10.0 mi Calm Calm - N/A   Scattered Clouds
10:55 PM 37.4 °F - 32.0 °F 81% 29.98 in 10.0 mi Calm Calm - N/A   Partly Cloudy
11:15 PM 37.4 °F - 30.2 °F 75% 29.99 in 10.0 mi Calm Calm - N/A   Scattered Clouds
11:35 PM 39.2 °F 35.9 °F 28.4 °F 65% 30.00 in 10.0 mi NNW 4.6 mph - N/A   Mostly Cloudy
11:55 PM 39.2 °F 34.2 °F 24.8 °F 56% 30.00 in 10.0 mi NNW 6.9 mph - N/A   Mostly Cloudy